TimeEST,TemperatureF,Dew PointF,Humidity,Sea Level PressureIn,VisibilityMPH,Wind Direction,Wind SpeedMPH,Gust SpeedMPH,PrecipitationIn,Events,Conditions,WindDirDegrees,DateUTC
12:15 AM,42.8,41.0,93,30.13,10.0,Calm,Calm,-,N/A,,Clear,0,2011-12-30 05:15:00
12:35 AM,41.0,41.0,100,30.13,5.0,Calm,Calm,-,N/A,,Clear,0,2011-12-30 05:35:00
12:55 AM,42.8,41.0,93,30.11,10.0,Calm,Calm,-,N/A,,Clear,0,2011-12-30 05:55:00
1:15 AM,41.0,39.2,93,30.11,1.0,Calm,Calm,-,N/A,,Unknown,0,2011-12-30 06:15:00
1:35 AM,41.0,39.2,93,30.11,7.0,Calm,Calm,-,N/A,,Clear,0,2011-12-30 06:35:00
1:55 AM,39.2,37.4,93,30.11,0.5,Calm,Calm,-,N/A,,Unknown,0,2011-12-30 06:55:00
2:15 AM,39.2,37.4,93,30.11,1.2,Calm,Calm,-,N/A,,Unknown,0,2011-12-30 07:15:00
2:35 AM,37.4,37.4,100,30.12,0.8,Calm,Calm,-,N/A,,Unknown,0,2011-12-30 07:35:00
2:55 AM,37.4,37.4,100,30.11,2.0,Calm,Calm,-,N/A,,Clear,0,2011-12-30 07:55:00
3:15 AM,37.4,37.4,100,30.11,4.0,Calm,Calm,-,N/A,,Clear,0,2011-12-30 08:15:00
3:35 AM,37.4,35.6,93,30.12,0.8,Calm,Calm,-,N/A,,Unknown,0,2011-12-30 08:35:00
3:55 AM,37.4,37.4,100,30.12,0.5,Calm,Calm,-,N/A,,Unknown,0,2011-12-30 08:55:00
4:15 AM,35.6,35.6,100,30.12,1.2,Calm,Calm,-,N/A,,Unknown,0,2011-12-30 09:15:00
4:35 AM,37.4,35.6,93,30.12,1.0,Calm,Calm,-,N/A,,Unknown,0,2011-12-30 09:35:00
4:55 AM,35.6,35.6,100,30.13,1.5,Calm,Calm,-,N/A,,Unknown,0,2011-12-30 09:55:00
5:15 AM,35.6,35.6,100,30.14,1.0,Calm,Calm,-,N/A,,Unknown,0,2011-12-30 10:15:00
5:35 AM,35.6,35.6,100,30.14,7.0,Calm,Calm,-,N/A,,Clear,0,2011-12-30 10:35:00
5:55 AM,35.6,33.8,93,30.14,7.0,Calm,Calm,-,N/A,,Clear,0,2011-12-30 10:55:00
6:15 AM,35.6,33.8,93,30.15,1.5,Calm,Calm,-,N/A,,Unknown,0,2011-12-30 11:15:00
6:35 AM,35.6,35.6,100,30.15,4.0,Calm,Calm,-,N/A,,Clear,0,2011-12-30 11:35:00
6:55 AM,35.6,35.6,100,30.16,5.0,Calm,Calm,-,N/A,,Clear,0,2011-12-30 11:55:00
7:15 AM,35.6,33.8,93,30.17,1.5,Calm,Calm,-,N/A,,Unknown,0,2011-12-30 12:15:00
7:35 AM,35.6,33.8,93,30.17,1.8,Calm,Calm,-,N/A,,Scattered Clouds,0,2011-12-30 12:35:00
7:55 AM,35.6,35.6,100,30.17,10.0,Calm,Calm,-,N/A,,Scattered Clouds,0,2011-12-30 12:55:00
8:15 AM,37.4,37.4,100,30.18,10.0,Calm,Calm,-,N/A,,Scattered Clouds,0,2011-12-30 13:15:00
8:35 AM,42.8,41.0,93,30.18,10.0,Calm,Calm,-,N/A,,Mostly Cloudy,0,2011-12-30 13:35:00
8:55 AM,46.4,44.6,93,30.19,10.0,Calm,Calm,-,N/A,,Mostly Cloudy,0,2011-12-30 13:55:00
9:15 AM,50.0,44.6,82,30.20,10.0,Calm,Calm,-,N/A,,Scattered Clouds,0,2011-12-30 14:15:00
9:35 AM,53.6,44.6,72,30.20,10.0,Calm,Calm,-,N/A,,Scattered Clouds,0,2011-12-30 14:35:00
9:55 AM,57.2,44.6,63,30.20,10.0,Calm,Calm,-,N/A,,Clear,0,2011-12-30 14:55:00
10:15 AM,60.8,42.8,52,30.20,10.0,SW,4.6,-,N/A,,Clear,220,2011-12-30 15:15:00
10:35 AM,60.8,42.8,52,30.19,10.0,SSE,3.5,-,N/A,,Clear,150,2011-12-30 15:35:00
10:55 AM,62.6,42.8,48,30.18,10.0,SE,3.5,-,N/A,,Scattered Clouds,130,2011-12-30 15:55:00
11:15 AM,64.4,42.8,45,30.17,10.0,SSE,3.5,-,N/A,,Mostly Cloudy,160,2011-12-30 16:15:00
11:35 AM,64.4,44.6,49,30.16,10.0,SSE,8.1,-,N/A,,Scattered Clouds,150,2011-12-30 16:35:00
11:55 AM,66.2,44.6,46,30.16,10.0,South,10.4,-,N/A,,Clear,180,2011-12-30 16:55:00
12:15 PM,64.4,44.6,49,30.14,10.0,SSE,10.4,-,N/A,,Mostly Cloudy,160,2011-12-30 17:15:00
12:35 PM,66.2,44.6,46,30.13,10.0,SSE,9.2,-,N/A,,Mostly Cloudy,150,2011-12-30 17:35:00
12:55 PM,64.4,44.6,49,30.12,10.0,SSE,9.2,-,N/A,,Mostly Cloudy,150,2011-12-30 17:55:00
1:15 PM,64.4,44.6,49,30.11,10.0,SSE,10.4,-,N/A,,Overcast,160,2011-12-30 18:15:00
1:35 PM,66.2,42.8,43,30.11,10.0,SSE,9.2,-,N/A,,Overcast,160,2011-12-30 18:35:00
1:55 PM,64.4,44.6,49,30.10,10.0,SE,9.2,-,N/A,,Mostly Cloudy,140,2011-12-30 18:55:00
2:15 PM,66.2,44.6,46,30.09,10.0,SE,9.2,-,N/A,,Scattered Clouds,140,2011-12-30 19:15:00
2:35 PM,66.2,44.6,46,30.09,10.0,SSE,10.4,-,N/A,,Scattered Clouds,150,2011-12-30 19:35:00
2:55 PM,66.2,44.6,46,30.09,10.0,SE,9.2,-,N/A,,Scattered Clouds,140,2011-12-30 19:55:00
3:15 PM,64.4,44.6,49,30.08,10.0,South,9.2,-,N/A,,Clear,180,2011-12-30 20:15:00
3:35 PM,64.4,46.4,52,30.09,10.0,SSE,8.1,-,N/A,,Clear,160,2011-12-30 20:35:00
3:55 PM,64.4,46.4,52,30.08,10.0,SSE,10.4,-,N/A,,Scattered Clouds,160,2011-12-30 20:55:00
4:15 PM,62.6,46.4,55,30.08,10.0,SSE,8.1,-,N/A,,Scattered Clouds,150,2011-12-30 21:15:00
4:35 PM,62.6,48.2,59,30.08,10.0,SSE,8.1,-,N/A,,Overcast,150,2011-12-30 21:35:00
4:55 PM,60.8,50.0,68,30.08,10.0,SSE,8.1,-,N/A,,Overcast,160,2011-12-30 21:55:00
5:15 PM,60.8,50.0,68,30.08,10.0,SE,5.8,-,N/A,,Overcast,140,2011-12-30 22:15:00
5:35 PM,60.8,50.0,68,30.08,10.0,SSE,5.8,-,N/A,,Scattered Clouds,150,2011-12-30 22:35:00
5:55 PM,59.0,51.8,77,30.08,10.0,SSE,3.5,-,N/A,,Scattered Clouds,160,2011-12-30 22:55:00
6:15 PM,59.0,51.8,77,30.09,10.0,South,3.5,-,N/A,,Scattered Clouds,170,2011-12-30 23:15:00
6:35 PM,59.0,51.8,77,30.09,10.0,South,4.6,-,N/A,,Clear,170,2011-12-30 23:35:00
6:55 PM,59.0,51.8,77,30.08,10.0,SSE,6.9,-,N/A,,Clear,150,2011-12-30 23:55:00
7:15 PM,59.0,51.8,77,30.09,10.0,South,6.9,-,N/A,,Clear,170,2011-12-31 00:15:00
7:35 PM,59.0,51.8,77,30.09,10.0,SSE,4.6,-,N/A,,Scattered Clouds,160,2011-12-31 00:35:00
7:55 PM,59.0,51.8,77,30.09,10.0,South,5.8,-,N/A,,Scattered Clouds,180,2011-12-31 00:55:00
8:15 PM,60.8,51.8,72,30.10,10.0,South,6.9,-,N/A,,Overcast,180,2011-12-31 01:15:00
8:35 PM,60.8,51.8,72,30.10,10.0,South,6.9,-,N/A,,Overcast,170,2011-12-31 01:35:00
8:55 PM,60.8,51.8,72,30.09,10.0,South,8.1,-,N/A,,Scattered Clouds,170,2011-12-31 01:55:00
9:15 PM,59.0,51.8,77,30.09,10.0,South,5.8,-,N/A,,Clear,180,2011-12-31 02:15:00
9:35 PM,59.0,51.8,77,30.09,10.0,SSE,4.6,-,N/A,,Clear,160,2011-12-31 02:35:00
9:55 PM,59.0,51.8,77,30.09,10.0,South,4.6,-,N/A,,Clear,190,2011-12-31 02:55:00
10:15 PM,59.0,51.8,77,30.09,10.0,South,4.6,-,N/A,,Clear,180,2011-12-31 03:15:00
10:35 PM,59.0,50.0,72,30.09,10.0,South,3.5,-,N/A,,Clear,190,2011-12-31 03:35:00
10:55 PM,55.4,50.0,82,30.08,10.0,South,5.8,-,N/A,,Clear,170,2011-12-31 03:55:00
11:15 PM,57.2,50.0,77,30.09,10.0,SSW,5.8,-,N/A,,Scattered Clouds,200,2011-12-31 04:15:00
11:35 PM,59.0,50.0,72,30.09,10.0,SSW,5.8,-,N/A,,Mostly Cloudy,210,2011-12-31 04:35:00
11:55 PM,59.0,51.8,77,30.10,10.0,WSW,5.8,-,N/A,,Overcast,240,2011-12-31 04:55:00